[[{"header":{"parameterUnit":"m.s-1","parameterCategory":1,"la1":30.2992,"la2":30.254,"lo1":-89.0895,"lo2":-89.0443,"dy":0.0025,"dx":0.0025,"nx":19,"ny":19,"refTime":"2026-03-29T09:00:00:Z","depth":0,"parameterNumber":2,"parameterNumberName":"U-component_of_WINDS"},"data":[0,0,0,-5.476,-5.4764,-5.4922,-5.4923,-5.5138,-5.514,0,0,0,0,0,0,0,0,0,0,0,-5.472,-5.4721,-5.476,-5.4764,-5.4922,-5.4923,-5.5138,-5.514,0,0,0,0,0,0,0,0,0,0,0,-5.4719,-5.4721,-5.4723,-5.4765,-5.4922,-5.4923,-5.5138,-5.5014,0,0,0,0,0,0,0,0,0,0,-5.4858,-5.4826,-5.472,-5.4723,-5.4766,-5.4922,-5.4923,-5.5007,-5.5021,-5.5072,0,-5.5117,0,-5.5132,-5.5156,-5.5156,0,0,0,-5.4759,-5.4815,-5.4852,-5.4723,-5.4767,-5.4922,-5.4849,-5.5015,-5.5031,-5.509,-5.512,-5.5128,-5.5136,-5.5157,-5.5158,-5.5462,-5.5463,0,0,-5.475,-5.4752,-5.4841,-5.4862,-5.4837,-5.4844,-5.4854,-5.5024,-5.5058,-5.5121,-5.5133,-5.514,-5.5159,-5.516,-5.546,-5.5462,0,0,0,-5.4728,-5.4746,-5.4778,-5.4854,-5.4881,-5.4849,-5.4861,-5.505,-5.506,-5.5135,-5.5142,-5.516,-5.5163,-5.5458,-5.5461,-5.5541,0,0,0,-5.4723,-5.4733,-5.4775,-5.4777,-5.4878,-5.4967,-5.4883,-5.5049,-5.5068,-5.5141,-5.516,-5.5165,-5.5457,-5.546,-5.5535,-5.5578,0,0,0,-5.4707,-5.4731,-5.4756,-5.4777,-5.4845,-5.4965,-5.4985,-5.5053,-5.5072,-5.5157,-5.5165,-5.5455,-5.5459,-5.5529,-5.5569,-5.5656,0,0,0,-5.4691,-5.4827,-5.4758,-5.4913,-5.4844,-5.5014,-5.4983,-5.511,-5.5192,-5.5161,-5.5457,-5.5461,-5.5528,-5.5563,-5.565,-5.5727,-5.576,0,0,-5.4863,-5.4847,-5.4938,-5.4881,-5.5063,-5.4989,-5.5184,-5.5258,-5.5266,-5.5396,-5.5404,-5.5537,-5.5568,-5.5655,-5.5951,-5.5977,0,0,0,-5.4993,-5.5058,-5.5106,-5.5184,-5.5244,-5.5298,-5.5343,-5.5371,-5.5481,-5.5333,-5.5594,-5.5612,-5.5663,-5.57,-5.5722,-5.5764,-5.5479,-5.5478,-5.5478,-5.5236,-5.5239,-5.5389,-5.541,-5.5487,-5.5532,-5.5594,-5.5639,-5.562,-5.5682,-5.5719,-5.5898,-5.5941,-5.5958,-5.6002,-5.5763,-5.5763,-5.5764,-5.5764,-5.5486,-5.5577,-5.5549,-5.5684,-5.5687,-5.5801,-5.5851,-5.5834,-5.594,-5.587,-5.5915,-5.5835,-5.5986,-5.6025,-5.577,-5.5769,-5.5768,-5.5767,-5.5767,-5.5642,-5.5686,-5.5718,-5.5831,-5.5918,-5.5937,-5.604,-5.604,-5.604,-5.6085,-5.6123,-5.6122,-5.6118,-5.6104,-5.6105,-5.6106,-5.6106,-5.6107,-5.6107,-5.579,-5.5824,-5.591,-5.5987,-5.6036,-5.6102,-5.6151,-5.6201,-5.6255,-5.6247,-5.6247,-5.622,-5.6002,-5.5945,-5.6117,-5.6115,-5.6114,-5.6113,-5.6112,-5.6036,-5.5981,-5.6114,-5.6164,-5.6254,-5.634,-5.6339,-5.6441,-5.6482,-5.6533,-5.6499,-5.6339,-5.6323,-5.6305,-5.6257,-5.6499,-5.6499,-5.6499,-5.6499,-5.6165,-5.6158,-5.6294,-5.6374,-5.6453,-5.6466,-5.6617,-5.6658,-5.6691,-5.6717,-5.6683,-5.6622,-5.6604,-5.6599,-5.6574,-5.653,-5.6836,-5.6836,-5.6836,-5.6315,-5.6315,-5.6443,-5.6474,-5.6545,-5.6606,-5.6748,-5.6842,-5.6869,-5.685,-5.6737,-5.6723,-5.6624,-5.6592,-5.6566,-5.6528,-5.6447,0,0]},{"header":{"parameterUnit":"m.s-1","parameterCategory":1,"la1":30.2992,"la2":30.254,"lo1":-89.0895,"lo2":-89.0443,"dy":0.0025,"dx":0.0025,"nx":19,"ny":19,"refTime":"2026-03-29T09:00:00:Z","depth":0,"parameterNumber":3,"parameterNumberName":"V-component_of_WINDS"},"data":[0,0,0,1.864,1.8643,1.8801,1.8802,1.899,1.8991,0,0,0,0,0,0,0,0,0,0,0,1.8581,1.8582,1.864,1.8643,1.8801,1.8802,1.8989,1.8991,0,0,0,0,0,0,0,0,0,0,0,1.8581,1.8582,1.8583,1.8644,1.8801,1.8802,1.8989,1.8876,0,0,0,0,0,0,0,0,0,0,1.8725,1.8658,1.8581,1.8583,1.8645,1.8801,1.8802,1.887,1.8883,1.8911,0,1.893,0,1.8963,1.9003,1.9003,0,0,0,1.8653,1.8648,1.8701,1.8583,1.8646,1.88,1.8732,1.8878,1.8891,1.8927,1.8933,1.894,1.8966,1.9004,1.9004,1.9129,1.9129,0,0,1.8644,1.8604,1.8691,1.8709,1.868,1.8727,1.8737,1.8886,1.8891,1.8934,1.8945,1.8969,1.9005,1.9006,1.9129,1.9129,0,0,0,1.8613,1.8597,1.8647,1.8701,1.873,1.8732,1.8743,1.8884,1.8904,1.8947,1.8972,1.9006,1.9008,1.9129,1.9129,1.9095,0,0,0,1.8608,1.8579,1.8643,1.862,1.8727,1.8808,1.8737,1.8893,1.8912,1.8971,1.9006,1.9009,1.9129,1.9129,1.9095,1.9085,0,0,0,1.8575,1.8575,1.8593,1.8617,1.8683,1.8807,1.8836,1.8898,1.8926,1.9003,1.901,1.9129,1.9129,1.9096,1.9087,1.9107,0,0,0,1.8529,1.8561,1.8592,1.8639,1.8681,1.8784,1.8835,1.8914,1.8976,1.9007,1.9129,1.9129,1.9096,1.9087,1.9107,1.9115,1.9115,0,0,1.8547,1.8562,1.8593,1.8625,1.8711,1.8763,1.8846,1.8942,1.8988,1.908,1.9084,1.9095,1.9087,1.9107,1.9128,1.9127,0,0,0,1.8585,1.8606,1.8638,1.8694,1.8768,1.8831,1.8919,1.8955,1.9035,1.9026,1.9109,1.9105,1.9119,1.9125,1.9125,1.9139,1.913,1.913,1.913,1.8552,1.8608,1.8664,1.8739,1.8793,1.8884,1.8935,1.9,1.9041,1.906,1.9087,1.9093,1.9099,1.9099,1.9113,1.9097,1.9097,1.9097,1.9097,1.8585,1.8625,1.8679,1.8752,1.8812,1.8876,1.8966,1.8994,1.9064,1.9077,1.9092,1.9101,1.9096,1.9112,1.9095,1.9095,1.9095,1.9096,1.9096,1.8569,1.8598,1.8641,1.873,1.8792,1.887,1.8934,1.8987,1.9038,1.9053,1.9088,1.9089,1.9097,1.9066,1.9066,1.9066,1.9066,1.9066,1.9066,1.8536,1.8586,1.8632,1.8714,1.8758,1.8823,1.8917,1.8964,1.9029,1.9063,1.9064,1.9104,1.9085,1.9079,1.9067,1.9067,1.9067,1.9067,1.9067,1.8547,1.8554,1.8624,1.8668,1.8771,1.8831,1.8899,1.8989,1.9035,1.9066,1.9104,1.9081,1.9101,1.9102,1.9097,1.9091,1.9091,1.9091,1.9091,1.8534,1.8549,1.8634,1.8702,1.8775,1.8844,1.8926,1.9001,1.908,1.9113,1.9122,1.9121,1.9119,1.914,1.914,1.9137,1.9141,1.9141,1.9141,1.8545,1.857,1.8627,1.8702,1.8787,1.8859,1.8939,1.9017,1.9109,1.9144,1.914,1.9138,1.9137,1.9133,1.9167,1.9166,1.9161,0,0]}]]